This is the latest recevied weather packets stored in our database for station/object IZ1UQG-1. If no packets are shown the sender has not sent any weather packets the latest 10 day(s).
| Time | Temp. | Humidity | Pressure | Rain* | Wind** | Luminosity | Snow |
|---|---|---|---|---|---|---|---|
| 1777289652 | 27.78° C | 40% | 1015.5 hPa | 111.76 mm | - | - | - |
| 1777289352 | 27.78° C | 40% | 1015.6 hPa | 104.39 mm | - | - | - |
| 1777289052 | 27.78° C | 40% | 1015.6 hPa | 96.77 mm | - | - | - |
| 1777288752 | 27.78° C | 40% | 1015.8 hPa | 77.47 mm | - | - | - |
| 1777288452 | 27.78° C | 40% | 1015.7 hPa | 97.79 mm | - | - | - |
| 1777288152 | 27.78° C | 40% | 1015.9 hPa | 94.23 mm | - | - | - |
| 1777287852 | 27.78° C | 39% | 1015.9 hPa | 89.92 mm | - | - | - |
| 1777287552 | 27.78° C | 39% | 1016 hPa | 68.33 mm | - | - | - |
| 1777287252 | 28.33° C | 39% | 1016 hPa | 93.73 mm | - | - | - |
| 1777286952 | 28.33° C | 40% | 1016 hPa | 97.28 mm | - | - | - |
| 1777286652 | 28.33° C | 40% | 1016.1 hPa | 94.74 mm | - | - | - |
| 1777286352 | 27.78° C | 40% | 1016.2 hPa | 85.34 mm | - | - | - |
| 1777286052 | 27.78° C | 40% | 1016.1 hPa | 114.3 mm | - | - | - |
| 1777285752 | 27.78° C | 39% | 1016.2 hPa | 112.27 mm | - | - | - |
| 1777285452 | 27.78° C | 39% | 1016.1 hPa | 119.63 mm | - | - | - |
| 1777285154 | 27.78° C | 39% | 1016.2 hPa | 108.2 mm | - | - | - |
| 1777284852 | 27.78° C | 39% | 1016.4 hPa | 109.73 mm | - | - | - |
| 1777284552 | 28.33° C | 38% | 1016.4 hPa | 121.16 mm | - | - | - |
| 1777284252 | 28.33° C | 38% | 1016.3 hPa | 132.08 mm | - | - | - |
| 1777283952 | 28.33° C | 39% | 1016.3 hPa | 109.22 mm | - | - | - |
| 1777283652 | 27.78° C | 41% | 1016.5 hPa | 125.73 mm | - | - | - |
| 1777283352 | 27.22° C | 42% | 1016.5 hPa | 139.7 mm | - | - | - |
| 1777283052 | 27.22° C | 41% | 1016.6 hPa | 137.16 mm | - | - | - |
| 1777282752 | 27.22° C | 41% | 1016.7 hPa | 137.67 mm | - | - | - |
| 1777282452 | 26.67° C | 41% | 1016.8 hPa | 134.62 mm | - | - | - |
* Rain latest hour (hover to see other rain measurements)
** Current wind speed in m/s (hover to see current wind gust speed)